Location: C.E.K. Mees Observatory
(42.7003°N, 77.4088°W)
Time: 00:03:56
(UTC-04:00)

Tiangong 1 - Pass Details

Date: 09 October 2017
Orbit: 294 x 320 km, 42.8° (Epoch: 17 October)

Event Time Altitude Azimuth Distance (km) Brightness Sun altitude
Rises 19:08:54 0° 257° (WSW) 2,040 7.0 -6.7°
Reaches altitude 10° 19:10:53 10° 256° (WSW) 1,206 5.2 -7.1°
Maximum altitude 19:13:35 77° 171° (S) 322 0.6 -7.6°
Enters shadow 19:16:02 12° 84° (E) 1,105 2.7 -8.0°
